User: anonymous   Login
Location: Vancouver
(49.2500°N, 123.1330°W)
Time: 08:11:01
(UTC-07:00)
Language:

AO-27 - Orbit

View from above orbital plane
View from above orbital plane
View from above satellite
View from above satellite

Ground track
Ground track

The orbit data is extracted from the following two-line orbital elements,

1 22825U 93061C   16179.44080720  .00000010  00000-0  21263-4 0  9996
2 22825  98.7599 135.7508 0007342 291.4975  68.5424 14.29959427186703
Epoch (UTC): 27 June 2016 10:34:45
Eccentricity: 0.0007342
inclination: 98.7599°
perigee height: 786 km
apogee height: 797 km
right ascension of ascending node: 135.7508°
argument of perigee: 291.4975°
revolutions per day: 14.29959427
mean anomaly at epoch: 68.5424°
orbit number at epoch: 18670

The dashed part of the orbit path shows where the satellite is in the earth's shadow,  

DLR